Вернуться в каталог

METEOR 2-6 DEB

АктивенPO
NORAD 29201·DEBRIS·🇷🇺 Russia

Запущен Sep 9, 1980 с Plesetsk Cosmodrome

Loading…

Ближайшие Пролёты (ближайшие 24 часа)

TLE

УстаревающийSource: Space-Track

Эпоха: Sep 6, 2026, 10:23 UTC

1 29201U 80073G   26249.43314643  .00027506  00000-0  22670-2 0  9992
2 29201  81.1888 143.4799 0007511  49.4963 310.6909 14.98901393673793

Отслеживайте METEOR 2-6 DEB в реальном времени с AllMySat

Download on the App Store